Location: Gloden
(48.4833°N, 15.3167°E)
Time: 02:06:56
(UTC+00:00)

ITUPSAT 1 - Pass Details

Date: 15 May 2021
Orbit: 700 x 713 km, 98.6° (Epoch: 24 June)

Event Time Altitude Azimuth Distance (km) Brightness Sun altitude
Rises 19:59:40 0° 0° (N) 3,117 ? -12.0°
Reaches altitude 10° 20:02:49 10° 339° (NNW) 2,190 ? -12.3°
Maximum altitude 20:05:30 15° 304° (NW) 1,854 ? -12.6°
Drops below altitude 10° 20:08:10 10° 270° (W) 2,178 ? -12.9°
Sets 20:11:17 0° 248° (WSW) 3,089 ? -13.2°
